This is the latest recevied weather packets stored in our database for station/object OK1FET-15. If no packets are shown the sender has not sent any weather packets the latest 1 day(s).
| Time | Temp. | Humidity | Pressure | Rain* | Wind** | Luminosity | Snow |
|---|---|---|---|---|---|---|---|
| 1777964023 | 21.11° C | 50% | 1008.1 hPa | - | 0 m/s | - | - |
| 1777963715 | 21.11° C | 50% | 1008.1 hPa | - | 0 m/s | - | - |
| 1777963100 | 21.11° C | 51% | 1008.1 hPa | - | 0.45 m/s, 152° | - | - |
| 1777962792 | 20.56° C | 60% | 1008 hPa | - | 0 m/s | - | - |
| 1777962484 | 20.56° C | 64% | 1008.1 hPa | - | 0 m/s | - | - |
| 1777962176 | 20° C | 60% | 1008.1 hPa | - | 0 m/s | - | - |
| 1777961868 | 20° C | 68% | 1008.1 hPa | - | 0 m/s | - | - |
| 1777961561 | 19.44° C | 70% | 1008.1 hPa | - | 0 m/s | - | - |
| 1777961253 | 19.44° C | 71% | 1008.2 hPa | - | 0.45 m/s, 120° | - | - |
| 1777960945 | 18.89° C | 75% | 1008.3 hPa | - | 0 m/s | - | - |
| 1777960638 | 18.33° C | 84% | 1008.4 hPa | - | 0 m/s | - | - |
| 1777960330 | 17.78° C | 88% | 1008.5 hPa | - | 0 m/s | - | - |
| 1777960023 | 16.67° C | 89% | 1008.4 hPa | - | 0 m/s | - | - |
| 1777959698 | 16.67° C | 89% | 1008.4 hPa | - | 0 m/s | - | - |
| 1777959373 | 16.11° C | 90% | 1008.4 hPa | - | 0 m/s | - | - |
| 1777959048 | 16.11° C | 90% | 1008.4 hPa | - | 0 m/s | - | - |
| 1777958723 | 15.56° C | 90% | 1008.5 hPa | - | 0 m/s | - | - |
| 1777958398 | 15.56° C | 90% | 1008.5 hPa | - | 0 m/s | - | - |
| 1777958073 | 15.56° C | 90% | 1008.5 hPa | - | 0 m/s | - | - |
| 1777957748 | 15° C | 90% | 1008.4 hPa | - | 0 m/s | - | - |
| 1777957423 | 15° C | 90% | 1008.5 hPa | - | 0 m/s | - | - |
* Rain since midnight (hover to see other rain measurements)
** Current wind speed in m/s (hover to see current wind gust speed)